User: anonymous   Login
Location: Daybis Observatory
(33.4273°N, 88.8061°W)
Time: 06:13:41
(UTC-05:00)
Language:

Coronas F rocket - Orbit

View from above orbital plane
View from above orbital plane
View from above satellite
View from above satellite

Ground track
Ground track

The orbit data is extracted from the following two-line orbital elements,

1 26874U 01032B   15143.21058975  .00013425  00000-0  13887-3 0  9999
2 26874 082.4655 344.2040 0010288 232.1939 127.8389 15.64491616774227
Epoch (UTC): 23 May 2015 05:03:14
Eccentricity: 0.0010288
inclination: 82.4655°
perigee height: 368 km
apogee height: 381 km
right ascension of ascending node: 344.2040°
argument of perigee: 232.1939°
revolutions per day: 15.64491616
mean anomaly at epoch: 127.8389°
orbit number at epoch: 77422

The dashed part of the orbit path shows where the satellite is in the earth's shadow,  

DLR